NOAA NWS Hourly Roundups by Site

Regional Weather Roundup for San Diego, CA

To Select Another Site Choose from List

Select Site:  

000
ASUS46 KSGX 142311
RWRSGX

SAN DIEGO HOURLY WEATHER ROUNDUP
NATIONAL WEATHER SERVICE SAN DIEGO CA
400 PM PDT MON OCT 14 2019

NOTE: "FAIR" INDICATES FEW OR NO CLOUDS BELOW 12,000 FEET WITH NO
SIGNIFICANT WEATHER AND/OR OBSTRUCTIONS TO VISIBILITY.

CAZ042-043-060-061-PZZ750-775-150000-

GREATER SAN DIEGO AREA

CITY           SKY/WX    TMP DP  RH WIND       PRES   REMARKS
SAN DIEGO AP   MOSUNNY   72  54  53 W12       29.92S
NATIONAL CITY    N/A     73  51  45 NW6       29.91S
CHULA VISTA      N/A     71  57  61 W7        29.82R
BROWN FIELD    SUNNY     70  51  51 W8        29.91R
MIRAMAR MCAS   SUNNY     72  54  53 W8        29.91R
MONTGOMERY FLD SUNNY     71  53  52 W8        29.91R
GILLESPIE FLD  SUNNY     73  52  46 W12       29.90R

$$

NORTH SAN DIEGO COUNTY

CITY           SKY/WX    TMP DP  RH WIND       PRES   REMARKS
CAMP PENDLETON SUNNY     70  56  61 W9G17     29.89S
OCEANSIDE AP   SUNNY     71  57  61 W12       29.89S
OCEANSIDE HBR    N/A     67  60  78 W9        29.93R
VISTA            N/A     70  59  69 SW3       29.87S
CARLSBAD       SUNNY     67  57  70 VRB7      29.90S
DEL MAR          N/A     69  58  66 NW2       29.92R
LA JOLLA SCRIP   N/A     68  59  72 SW3       29.91R
FALLBROOK      FAIR      70  57  64 SW10      29.90S
ESCONDIDO        N/A     71  57  60 CALM      29.89R
SAN MARCOS       N/A     69  57  64 CALM      29.93S
POWAY            N/A     75  56  52 CALM      29.91R

$$

EAST SAN DIEGO COUNTY

CITY           SKY/WX    TMP DP  RH WIND       PRES   REMARKS
RAMONA         SUNNY     71  52  50 W13       29.91R
SANTEE LAKES     N/A     73  56  57 W6        29.87R
LA MESA          N/A     71  55  56 NW5       29.84S
JAMUL            N/A     70  54  56 CALM      29.89R
DESCANSO N       N/A     68  45  43 W3        29.85R
MT. LAGUNA OBS   N/A     70  40  33 SW1       29.81R
CAMPO            N/A     73  42  32 SW14      29.89R

$$

ORANGE COUNTY AND THE LOS ANGELES BASIN

CITY           SKY/WX    TMP DP  RH WIND       PRES   REMARKS
JOHN WAYNE AP  MOSUNNY   72  56  57 SW8       29.90S
LAGUNA BEACH     N/A     73  61  65 S1        29.90S
LAKE FOREST FR   N/A     73  53  49 W3        29.77S
HUNTINGTON BCH   N/A     70  61  73 NW8       29.90F
LOS ALAMITOS   FAIR      71  55  56 MISG      29.89S
FULLERTON      SUNNY     74  54  49 SW9       29.88S
LONG BEACH     SUNNY     73  53  49 S9        29.90S
L.A. AP        MOSUNNY   70  57  63 W16       29.91S
L.A. DOWNTOWN  SUNNY     72  56  57 VRB5      29.89S

$$

THE INLAND EMPIRE

CITY           SKY/WX    TMP DP  RH WIND       PRES   REMARKS
CHINO          SUNNY     79  48  33 W10       29.89S
ONTARIO        SUNNY     77  46  33 W10       29.89S
SAN BERNARDINO SUNNY     79  39  24 SW7       29.89S HAZE
RIVERSIDE AP   SUNNY     77  47  34 MISG      29.88F
MORENO VALLEY    N/A     77  52  41 W3        29.87S
MARCH ARB      SUNNY     75  43  32 W8        29.90S
HORSETHIEF CYN   N/A     75  39  26 E1        29.87S
PERRIS           N/A     75  48  38 W2        29.90F
HEMET EAST       N/A     78  40  25 SW2       29.92S
FRENCH VALLEY  FAIR      75  50  41 S9        29.90R
TEMECULA         N/A     75  56  50 SW3       29.85R

$$

SAN BERNARDINO AND RIVERSIDE COUNTY MOUNTAINS

CITY           SKY/WX    TMP DP  RH WIND       PRES   REMARKS
BIG BEAR AP    SUNNY     55  18  22 NE7       30.09R
ANGELUS OAKS     N/A     61  35  37 CALM      29.87R

$$

SOUTHERN DESERT INCLUDING THE COACHELLA VALLEY

CITY           SKY/WX    TMP DP  RH WIND       PRES   REMARKS
PALM SPRINGS   SUNNY     89  22   8 S6        29.82S
THOUSAND PALMS   N/A     88  31  13 S3        29.77S
PALM DESERT      N/A     90  35  14 CALM        N/A
THERMAL        SUNNY     90  31  12 SE6       29.77S
BORREGO AP     FAIR      86  27  11 VRB7G14   29.81S
BLYTHE         SUNNY     87  44  22 E5        29.80S
IMPERIAL AP    SUNNY     87  22   9 N5        29.78S
EL CENTRO NAS  SUNNY     88  23   9 N5        29.80F
YUMA AZ        SUNNY     88  43  20 CALM      29.78S
MEXICALI       SUNNY     86  19   8 W7        29.80S

$$

UPPER DESERT

CITY           SKY/WX    TMP DP  RH WIND       PRES   REMARKS
VICTORVILLE AP SUNNY    N/A N/A N/A N9        29.95R
HESPERIA         N/A     78  27  15 SE1       29.90S
APPLE VALLEY     N/A     78  27  15 SE7       29.92R
PALMDALE       SUNNY    N/A N/A N/A MISG      29.94S
LANCASTER      SUNNY     78  18  10 E6        29.94R
EDWARDS AFB    SUNNY     77  14   9 CALM      29.91S
DAGGETT        SUNNY     81  19  10 SE6       29.90S
29 PALMS N     SUNNY     80  19  10 CALM      29.96S
NEEDLES        SUNNY     87  47  24 VRB3      29.84S

$$

REGIONAL REPORTS

CITY           SKY/WX    TMP DP  RH WIND       PRES   REMARKS
SANTA BARBARA  SUNNY     67  56  67 W13       29.92S
SANDBERG         N/A     69  23  17 NW10      30.04R
LAS VEGAS NV   MOSUNNY   81  28  14 VRB3      29.90S
PHOENIX AZ     MOSUNNY   85  54  34 CALM      29.81F
TIJUANA        SUNNY     70  52  52 W17       29.93R
ENSENADA NW      N/A     69  32  25 W7        29.86R

$$

OFFSHORE ISLANDS

CITY           SKY/WX    TMP DP  RH WIND       PRES   REMARKS
CATALINA ARPT  SUNNY     63  52  67 W9        29.95R
SAN CLEMENTE I SUNNY     65  32  29 W12       29.94S
SAN NICOLAS IS SUNNY    N/A N/A N/A NW15      29.93S

$$

MARINE AND OFFSHORE BUOY REPORTS

STATION/POSITION SKY/WX   TEMP    WIND        PRES    VSBY  SWELL
                          AIR SEA DIR/SP/G                  HT/PER/DIR
                          (F)     (DEG/KT/KT) (MB)    (MI)  (FT/S/D)
TANNER BANKS               62 66  310/ 12/ 16   N/A
S CLEMENTE BASIN           64 69  290/ 12/ 14 1012.9F         2/220/15
SAN NICOLAS IS.               63                N/A           3/290/11
SO. S. ROSA ISLA           60 62  310/ 16/ 19 1014.5S         3/300/12
W. S. BARBARA CH                                N/A
M. S. BARBARA CH           62 64  270/ 12/ 14 1014.0S         2/240/11
S. MONICA BASIN            65 66  250/  4/  6 1013.5S         2/230/15
S PEDRO CHANNEL               69                N/A
OCEANSIDE OFFSHR              68                N/A           2/210/13
TORREY PINES OTR              68                N/A           2/210/15
SAN DIEGO BAY                 70              1012.2S
IMPERIAL BEACH                67                N/A           2/240/14
POINT LOMA SOUTH              70                N/A           2/220/14

$$



 

View Past Reports for San Diego, CA.

Products Courtesy of NOAA-NWS
NWS Information Parsing Script by Ken True at Saratoga Weather - Script by SE Lincoln Weather.